PLATFORM,ARGOS_ID,DATE (YYYY/MM/DD HH:MI:SS),LATITUDE (degree_north),LONGITUDE (degree_east),DEPH (meter),EWCT (meter/second),NSCT (meter/second),WSTN_MODEL (newton/m2),WSPN_MODEL (meter/second),CO00 (none),WSTE_MODEL (newton/m2),WSPE_MODEL (meter/second),QC
61934,64359,2008/09/11 15:00:00,40.5560,4.0130,50,0.059,0.142,0.01,0.7,311,0.02,4.3,0011111111111
61934,64359,2008/09/11 18:00:00,40.5660,4.0160,50,-0.071,0.141,0,0.4,311,0.01,1.8,0011111111111
61934,64359,2008/09/11 21:00:00,40.5830,3.9950,50,-0.132,0.216,0,0.1,311,0,0.1,0011111111111
61934,64359,2008/09/12 00:00:00,40.6080,3.9820,50,-0.081,0.22,-0.04,-0.8,311,-0.02,-3.1,0011111111111
61934,64359,2008/09/12 03:00:00,40.6260,3.9740,50,-0.1,0.078,-0.13,-8.4,311,-0.07,-4.9,0011111111111
61934,64359,2008/09/12 06:00:00,40.6240,3.9570,50,-0.23,-0.037,-0.18,-6.1,311,-0.08,-5,0011111111111
61934,64359,2008/09/12 09:00:00,40.6190,3.9150,50,-0.348,-0.001,-0.22,-10.8,311,-0.07,-2.9,0011111111111
61934,64359,2008/09/12 12:00:00,40.6230,3.8680,50,-0.346,0.073,-0.21,-10.1,311,-0.05,-2.7,0011111111111
61934,64359,2008/09/12 15:00:00,40.6330,3.8260,50,-0.177,0.107,-0.15,-8.8,311,-0.04,-2.8,0011111111111
61934,64359,2008/09/12 18:00:00,40.6440,3.8220,50,0.021,0.005,-0.13,-8.4,311,-0.03,-0.3,0011111111111
61934,64359,2008/09/12 21:00:00,40.6340,3.8320,50,-0.05,-0.264,-0.14,-9,311,-0.01,-0.8,0011111111111
61934,64359,2008/09/13 00:00:00,40.5930,3.8100,50,-0.213,-0.325,-0.13,-9.3,311,-0.02,-1.4,0011111111111
61934,64359,2008/09/13 03:00:00,40.5710,3.7770,50,-0.31,-0.194,-0.11,-7.4,311,-0.03,-1.9,0011111111111
61934,64359,2008/09/13 06:00:00,40.5550,3.7300,50,-0.327,-0.075,-0.08,-7.9,311,-0.02,-1.6,0011111111111
61934,64359,2008/09/13 09:00:00,40.5560,3.6930,50,-0.161,0.013,-0.04,-4.1,311,0,0.5,0011111111111
61934,64359,2008/09/13 12:00:00,40.5580,3.6890,50,0.049,-0.019,-0.01,-3.7,311,0,1,0011111111111
61934,64359,2008/09/13 15:00:00,40.5520,3.7060,50,0.099,-0.232,-0.01,-2,311,0,0.4,0011111111111
61934,64359,2008/09/13 18:00:00,40.5130,3.7140,50,-0.062,-0.378,0,1.7,311,0,0.5,0011111111111
61934,64359,2008/09/13 21:00:00,40.4790,3.6900,50,-0.269,-0.285,0,0.1,311,0,-0.8,0011111111111
61934,64359,2008/09/14 00:00:00,40.4570,3.6460,50,-0.227,-0.134,9999.99,,311,9999.99,,0011111119119
61934,64359,2008/09/14 03:00:00,40.4530,3.6320,50,-0.074,-0.003,9999.99,,311,9999.99,,0011111119119
61934,64359,2008/09/14 06:00:00,40.4570,3.6270,50,0.057,-0.031,9999.99,,311,9999.99,,0011111119119
61934,64359,2008/09/14 09:00:00,40.4470,3.6470,50,0.128,-0.166,9999.99,,311,9999.99,,0011111119119
61934,64359,2008/09/14 12:00:00,40.4250,3.6590,50,0.061,-0.212,9999.99,,311,9999.99,,0011111119119
61934,64359,2008/09/21 00:00:00,40.6430,3.3940,50,-0.158,-0.079,-0.01,-2.4,311,0,0.3,0011111111111
61934,64359,2008/09/21 03:00:00,40.6320,3.3680,50,-0.214,-0.068,-0.01,-2.5,311,0,-0.5,0011111111111
61934,64359,2008/09/21 06:00:00,40.6300,3.3400,50,-0.196,-0.017,0,0.6,311,0,0.9,0011111111111
61934,64359,2008/09/21 09:00:00,40.6290,3.3180,50,-0.042,-0.049,0,0.8,311,0,0.4,0011111111111
61934,64359,2008/09/21 12:00:00,40.6200,3.3290,50,0.051,-0.104,0,1.3,311,0,0.1,0011111111111
61934,64359,2008/09/21 15:00:00,40.6080,3.3310,50,-0.059,-0.119,0,0.4,311,0,-0.2,0011111111111
61934,64359,2008/09/21 18:00:00,40.5970,3.3140,50,-0.157,-0.089,0,0.1,311,0,-1.7,0011111111111
61934,64359,2008/09/21 21:00:00,40.5910,3.2910,50,-0.148,-0.007,0,-0.5,311,-0.01,-2.1,0011111111111
61934,64359,2008/09/22 00:00:00,40.5960,3.2760,50,-0.073,0.011,0,0.1,311,-0.01,-2.5,0011111111111
61934,64359,2008/09/22 03:00:00,40.5930,3.2720,50,-0.049,-0.069,0,-1.1,311,-0.01,-2.9,0011111111111
61934,64359,2008/09/22 06:00:00,40.5830,3.2630,50,-0.063,-0.117,0,-0.3,311,-0.02,-4.3,0011111111111
61934,64359,2008/09/22 09:00:00,40.5700,3.2560,50,-0.104,-0.087,0.01,1.4,311,-0.03,-4.5,0011111111111
61934,64359,2008/09/22 12:00:00,40.5660,3.2370,50,-0.163,-0.037,0.02,-1.2,311,-0.05,-6.2,0011111111111
61934,64359,2008/09/22 15:00:00,40.5630,3.2140,50,-0.106,0.01,-0.04,-2.8,311,-0.14,-8.8,0011111111111
61934,64359,2008/09/22 18:00:00,40.5680,3.2100,50,-0.06,0.027,-0.06,-0.7,311,-0.17,-8.3,0011111111111
61934,64359,2008/09/22 21:00:00,40.5680,3.1990,50,-0.128,-0.051,-0.08,-4.6,311,-0.14,-8.7,0011111111111
61934,64359,2008/09/23 00:00:00,40.5580,3.1770,50,-0.125,-0.095,-0.07,-3.1,311,-0.07,-3.8,0011111111111
61934,64359,2008/09/23 03:00:00,40.5500,3.1670,50,-0.129,-0.119,-0.07,-6.6,311,-0.03,-2.6,0011111111111
61934,64359,2008/09/23 06:00:00,40.5350,3.1440,50,-0.202,-0.113,-0.09,-6.8,311,-0.06,-4.8,0011111111111
61934,64359,2008/09/23 09:00:00,40.5280,3.1150,50,-0.241,-0.116,-0.08,-5.8,311,-0.06,-4.8,0011111111111
61934,64359,2008/09/23 12:00:00,40.5120,3.0820,50,-0.113,-0.079,-0.07,-7.8,311,-0.05,-4.3,0011111111111
61934,64359,2008/09/23 15:00:00,40.5130,3.0860,50,-0.098,0.009,-0.1,-6.5,311,-0.06,-3.9,0011111111111
61934,64359,2008/09/23 18:00:00,40.5140,3.0570,50,-0.187,-0.082,-0.09,-6,311,-0.06,-3.4,0011111111111
61934,64359,2008/09/23 21:00:00,40.4970,3.0390,50,-0.137,-0.133,-0.08,-6.8,311,-0.05,-3.2,0011111111111
61934,64359,2008/09/24 00:00:00,40.4880,3.0220,50,-0.11,-0.124,-0.07,-5.6,311,-0.02,-1,0011111111111
61934,64359,2008/09/24 03:00:00,40.4730,3.0110,50,-0.1,-0.163,-0.07,-6.1,311,-0.02,-1.5,0011111111111
61934,64359,2008/09/24 06:00:00,40.4560,2.9970,50,-0.136,-0.176,-0.09,-6.7,311,-0.05,-3.4,0011111111111
61934,64359,2008/09/24 09:00:00,40.4380,2.9760,50,-0.217,-0.142,-0.09,-6.2,311,-0.06,-5.5,0011111111111
61934,64359,2008/09/24 12:00:00,40.4280,2.9410,50,-0.242,-0.109,-0.06,-4.7,311,-0.04,-3.2,0011111111111
61934,64359,2008/09/24 15:00:00,40.4170,2.9140,50,-0.169,-0.114,-0.06,-5.8,311,-0.05,-4.4,0011111111111
61934,64359,2008/09/24 18:00:00,40.4060,2.8980,50,-0.095,-0.14,-0.06,-5.1,311,-0.06,-5.4,0011111111111
61934,64359,2008/09/24 21:00:00,40.3900,2.8900,50,-0.071,-0.223,-0.06,-4.3,311,-0.07,-5.6,0011111111111
61934,64359,2008/09/25 00:00:00,40.3630,2.8800,50,-0.116,-0.343,-0.06,-5.6,311,-0.05,-3.6,0011111111111
61934,64359,2008/09/25 03:00:00,40.3230,2.8600,50,-0.228,-0.35,-0.07,-6.3,311,-0.04,-3.3,0011111111111
61934,64359,2008/09/25 06:00:00,40.2950,2.8220,50,-0.197,-0.28,-0.06,-5.7,311,-0.04,-3.3,0011111111111
61934,64359,2008/09/25 09:00:00,40.2690,2.8100,50,-0.128,-0.213,-0.04,-5,311,-0.03,-2.5,0011111111111
61934,64359,2008/09/25 12:00:00,40.2540,2.7900,50,-0.102,-0.229,-0.03,-2,311,-0.02,-2,0011111111111
61934,64359,2008/09/25 15:00:00,40.2240,2.7840,50,0.005,-0.322,0,-1.1,311,0,1.5,0011111111111
61934,64359,2008/09/25 18:00:00,40.1910,2.7910,50,-0.008,-0.355,0,1.1,311,0,0.3,0011111111111
61934,64359,2008/09/25 21:00:00,40.1550,2.7820,50,-0.022,-0.291,-0.01,-0.9,311,0,0.6,0011111111111
61934,64359,2008/09/26 00:00:00,40.1340,2.7850,50,0.071,-0.174,-0.01,-2.6,311,0,0.1,0011111111111
61934,64359,2008/09/26 03:00:00,40.1220,2.8000,50,0.175,-0.115,-0.02,-3,311,-0.01,,0011111111119
61934,64359,2008/09/26 06:00:00,40.1120,2.8300,50,0.219,-0.122,-0.03,-3.1,311,-0.03,-4.6,0011111111111
61934,64359,2008/09/26 09:00:00,40.0980,2.8560,50,0.246,-0.094,-0.03,-3.2,311,-0.05,-5.1,0011111111111
61934,64359,2008/09/26 12:00:00,40.0940,2.8920,50,0.258,-0.057,-0.03,-4.2,311,-0.04,-6.7,0011111111111
61934,64359,2008/09/26 15:00:00,40.0870,2.9210,50,0.284,-0.045,-0.05,-4.2,311,-0.07,-6.3,0011111111111
61934,64359,2008/09/26 18:00:00,40.0850,2.9640,50,0.347,0.038,-0.06,-5.3,311,-0.05,-4.5,0011111111111
61934,64359,2008/09/26 21:00:00,40.0940,3.0090,50,0.352,0.095,-0.06,-5.6,311,-0.04,-3.7,0011111111111
61934,64359,2008/09/27 00:00:00,40.1030,3.0540,50,0.262,0.119,-0.04,-3.8,311,-0.05,-5.4,0011111111111
61934,64359,2008/09/27 03:00:00,40.1170,3.0760,50,0.207,0.142,-0.03,-2.4,311,-0.07,-6.3,0011111111111
61934,64359,2008/09/27 06:00:00,40.1310,3.1060,50,0.228,0.137,-0.04,-2.8,311,-0.08,-6.6,0011111111111
61934,64359,2008/09/27 09:00:00,40.1440,3.1340,50,0.145,0.13,-0.05,-4,311,-0.09,-7,0011111111111
61934,64359,2008/09/27 12:00:00,40.1560,3.1430,50,0.121,0.166,-0.06,-2.9,311,-0.1,-6,0011111111111
61934,64359,2008/09/27 15:00:00,40.1760,3.1650,50,0.196,0.178,-0.05,-4.3,311,-0.08,-6.5,0011111111111
61934,64359,2008/09/27 18:00:00,40.1910,3.1930,50,0.189,0.088,-0.05,-3.5,311,-0.1,-6.6,0011111111111
61934,64359,2008/09/27 21:00:00,40.1930,3.2130,50,0.157,0.048,-0.04,-3.4,311,-0.09,-7.1,0011111111111
61934,64359,2008/09/28 00:00:00,40.2000,3.2330,50,0.105,0.101,9999.99,,311,9999.99,,0011111119119
61934,64359,2008/09/28 03:00:00,40.2130,3.2400,50,0.095,0.13,9999.99,,311,9999.99,,0011111119119
61934,64359,2008/09/28 06:00:00,40.2250,3.2570,50,0.155,0.12,9999.99,,311,9999.99,,0011111119119
61934,64359,2008/09/28 09:00:00,40.2360,3.2790,50,0.138,0.1,9999.99,,311,9999.99,,0011111119119
61934,64359,2008/09/28 12:00:00,40.2450,3.2920,50,0.038,0.068,9999.99,,311,9999.99,,0011111119119
61934,64359,2008/09/28 15:00:00,40.2490,3.2890,50,0.013,0.071,9999.99,,311,9999.99,,0011111119119
